START_TIME,STEP,MOV.,M6,t_acc.,M7,t_acc.,M19,t_acc.,H36,t_acc.
1979-03-01 12:00:16.560 ,4,1,0.,12.0,0.,12.0,0.,12.0,0.,12.0
1979-03-01 12:00:28.560 ,4,1,0.,12.0,0.,12.0,0.,12.0,0.,12.0
1979-03-01 12:00:40.560 ,3,1,0.,12.0,0.,12.0,0.,12.0,0.,12.0
1979-03-01 12:00:52.560 ,3,1,1.,12.0,0.,12.0,0.,12.0,0.,12.0
1979-03-01 12:01:04.560 ,2,1,0.,12.0,0.,12.0,0.,12.0,0.,12.0
1979-03-01 12:01:16.560 ,2,1,0.,12.0,0.,12.0,0.,12.0,0.,12.0
1979-03-01 12:01:28.560 ,1,1,0.,12.0,0.,12.0,0.,12.0,0.,12.0
1979-03-01 12:01:40.560 ,1,1,0.,12.0,0.,12.0,0.,12.0,0.,12.0
1979-03-01 12:01:52.560 ,0,1,0.,12.0,0.,12.0,0.,12.0,0.,12.0
1979-03-01 12:02:04.560 ,0,1,0.,12.0,0.,12.0,0.,12.0,0.,12.0
1979-03-01 12:02:16.560 ,0,1,0.,12.0,0.,12.0,0.,12.0,0.,12.0
1979-03-01 12:02:28.560 ,0,1,0.,12.0,0.,12.0,0.,12.0,0.,12.0
1979-03-01 12:02:40.560 ,1,1,0.,12.0,0.,12.0,0.,12.0,0.,12.0
1979-03-01 12:02:52.560 ,1,1,0.,12.0,0.,12.0,0.,12.0,0.,12.0
1979-03-01 12:03:04.560 ,2,1,0.,12.0,0.,12.0,0.,12.0,0.,12.0
1979-03-01 12:03:16.560 ,2,1,0.,12.0,0.,12.0,0.,12.0,0.,12.0
1979-03-01 12:03:28.560 ,3,1,0.,12.0,0.,12.0,0.,12.0,0.,12.0
1979-03-01 12:03:40.560 ,3,1,0.,12.0,0.,12.0,0.,12.0,0.,12.0
1979-03-01 12:03:52.560 ,4,1,0.,12.0,0.,12.0,0.,12.0,0.,12.0
1979-03-01 12:04:04.560 ,4,1,1.,12.0,0.,12.0,0.,12.0,0.,12.0
1979-03-01 12:04:16.550 ,5,1,0.,12.0,0.,12.0,0.,12.0,0.,12.0
1979-03-01 12:04:28.560 ,5,1,0.,12.0,0.,12.0,0.,12.0,0.,12.0
1979-03-01 12:04:40.550 ,6,1,0.,12.0,0.,12.0,0.,12.0,0.,12.0
1979-03-01 12:04:52.550 ,6,1,0.,12.0,0.,12.0,0.,12.0,0.,12.0
1979-03-01 12:05:04.550 ,7,1,0.,12.0,0.,12.0,0.,12.0,0.,12.0
1979-03-01 12:05:16.550 ,7,1,0.,12.0,0.,12.0,0.,12.0,0.,12.0
1979-03-01 12:05:28.550 ,7,1,0.,12.0,0.,12.0,0.,12.0,0.,12.0
1979-03-01 12:05:40.550 ,7,1,0.,12.0,0.,12.0,0.,12.0,0.,12.0
1979-03-01 12:05:52.550 ,6,1,0.,12.0,0.,12.0,0.,12.0,0.,12.0
1979-03-01 12:06:04.550 ,6,1,0.,12.0,0.,12.0,0.,12.0,0.,12.0
1979-03-01 12:06:16.550 ,5,1,0.,12.0,0.,12.0,0.,12.0,0.,12.0
1979-03-01 12:06:28.550 ,5,1,0.,12.0,0.,12.0,0.,12.0,0.,12.0
1979-03-01 12:06:40.550 ,4,1,0.,12.0,0.,12.0,0.,12.0,0.,12.0
1979-03-01 12:06:52.550 ,4,1,0.,12.0,0.,12.0,0.,12.0,0.,12.0
1979-03-01 12:07:04.550 ,3,1,0.,12.0,0.,12.0,0.,12.0,0.,12.0
1979-03-01 12:07:16.550 ,3,1,1.,12.0,0.,12.0,0.,12.0,0.,12.0
1979-03-01 12:07:28.550 ,2,1,0.,12.0,0.,12.0,0.,12.0,0.,12.0
1979-03-01 12:07:40.550 ,2,1,1.,12.0,0.,12.0,0.,12.0,0.,12.0
1979-03-01 12:07:52.550 ,1,1,0.,12.0,0.,12.0,0.,12.0,0.,12.0
1979-03-01 12:08:04.550 ,1,1,0.,12.0,0.,12.0,0.,12.0,0.,12.0
1979-03-01 12:08:16.550 ,0,1,0.,12.0,0.,12.0,0.,12.0,0.,12.0
1979-03-01 12:08:28.550 ,0,1,0.,12.0,0.,12.0,0.,12.0,0.,12.0
1979-03-01 12:08:40.550 ,0,1,0.,12.0,0.,12.0,0.,12.0,0.,12.0
1979-03-01 12:08:52.560 ,0,1,0.,12.0,0.,12.0,0.,12.0,0.,12.0
1979-03-01 12:09:04.560 ,1,1,0.,12.0,0.,12.0,0.,12.0,0.,12.0
1979-03-01 12:09:16.560 ,1,1,0.,12.0,0.,12.0,0.,12.0,0.,12.0
1979-03-01 12:09:28.550 ,2,1,0.,12.0,0.,12.0,0.,12.0,0.,12.0
1979-03-01 12:09:40.560 ,2,1,0.,12.0,0.,12.0,0.,12.0,0.,12.0
1979-03-01 12:09:52.550 ,3,1,0.,12.0,0.,12.0,0.,12.0,0.,12.0
1979-03-01 12:10:04.560 ,3,1,0.,12.0,0.,12.0,0.,12.0,0.,12.0
1979-03-01 12:10:16.550 ,4,1,0.,12.0,0.,12.0,0.,12.0,0.,12.0
1979-03-01 12:10:28.560 ,4,1,0.,12.0,0.,12.0,0.,12.0,0.,12.0
1979-03-01 12:10:40.550 ,5,1,0.,12.0,0.,12.0,0.,12.0,0.,12.0
1979-03-01 12:10:52.560 ,5,1,0.,12.0,0.,12.0,0.,12.0,0.,12.0
1979-03-01 12:11:04.560 ,6,1,0.,12.0,0.,12.0,0.,12.0,0.,12.0
1979-03-01 12:11:16.560 ,6,1,0.,12.0,0.,12.0,0.,12.0,0.,12.0
1979-03-01 12:11:28.550 ,7,1,0.,12.0,0.,12.0,0.,12.0,0.,12.0
1979-03-01 12:11:40.560 ,7,1,0.,12.0,0.,12.0,0.,12.0,0.,12.0
1979-03-01 12:11:52.550 ,7,1,0.,12.0,0.,12.0,0.,12.0,0.,12.0
1979-03-01 12:12:04.560 ,7,1,0.,12.0,0.,12.0,0.,12.0,0.,12.0
1979-03-01 12:12:16.550 ,6,1,0.,12.0,0.,12.0,0.,12.0,0.,12.0
1979-03-01 12:12:28.560 ,6,1,0.,12.0,0.,12.0,0.,12.0,0.,12.0
1979-03-01 12:12:40.550 ,5,1,0.,12.0,0.,12.0,0.,12.0,0.,12.0
1979-03-01 12:12:52.560 ,5,1,0.,12.0,0.,12.0,0.,12.0,0.,12.0
1979-03-01 12:13:04.550 ,4,1,0.,12.0,0.,12.0,0.,12.0,0.,12.0
1979-03-01 12:13:16.560 ,4,1,0.,12.0,0.,12.0,0.,12.0,0.,12.0
1979-03-01 12:14:16.550 ,0,0,0.,12.0,0.,12.0,0.,12.0,0.,12.0
1979-03-01 12:14:28.560 ,0,0,0.,12.0,0.,12.0,0.,12.0,0.,12.0
1979-03-01 12:14:40.550 ,0,1,0.,12.0,0.,12.0,0.,12.0,0.,12.0
1979-03-01 12:14:52.560 ,0,1,0.,12.0,0.,12.0,0.,12.0,0.,12.0
1979-03-01 12:15:04.550 ,0,1,0.,12.0,0.,12.0,0.,12.0,0.,12.0
1979-03-01 12:15:16.560 ,0,1,0.,12.0,0.,12.0,0.,12.0,0.,12.0
1979-03-01 12:15:28.550 ,1,1,0.,12.0,0.,12.0,0.,12.0,0.,12.0
1979-03-01 12:15:40.560 ,1,1,0.,12.0,0.,12.0,0.,12.0,0.,12.0
1979-03-01 12:15:52.550 ,2,1,0.,12.0,0.,12.0,0.,12.0,0.,12.0
1979-03-01 12:16:04.550 ,2,1,0.,12.0,0.,12.0,0.,12.0,0.,12.0
1979-03-01 12:16:16.550 ,3,1,0.,12.0,0.,12.0,0.,12.0,0.,12.0
1979-03-01 12:16:28.560 ,3,1,0.,12.0,0.,12.0,0.,12.0,0.,12.0
1979-03-01 12:16:40.550 ,4,1,0.,12.0,0.,12.0,0.,12.0,0.,12.0
1979-03-01 12:16:52.560 ,4,1,0.,12.0,0.,12.0,0.,12.0,0.,12.0
1979-03-01 12:17:04.560 ,5,1,1.,12.0,0.,12.0,0.,12.0,0.,12.0
1979-03-01 12:17:16.560 ,5,1,0.,12.0,0.,12.0,0.,12.0,0.,12.0
1979-03-01 12:17:28.550 ,6,1,0.,12.0,0.,12.0,0.,12.0,0.,12.0
1979-03-01 12:17:40.550 ,6,1,0.,12.0,0.,12.0,0.,12.0,0.,12.0
1979-03-01 12:17:52.550 ,7,1,0.,12.0,0.,12.0,0.,12.0,0.,12.0
1979-03-01 12:18:04.550 ,7,1,0.,12.0,0.,12.0,0.,12.0,0.,12.0
1979-03-01 12:18:16.550 ,7,1,0.,12.0,0.,12.0,0.,12.0,0.,12.0
1979-03-01 12:18:28.550 ,7,1,0.,12.0,0.,12.0,0.,12.0,0.,12.0
1979-03-01 12:18:40.550 ,6,1,0.,12.0,0.,12.0,0.,12.0,0.,12.0
1979-03-01 12:18:52.550 ,6,1,0.,12.0,0.,12.0,0.,12.0,0.,12.0
1979-03-01 12:19:04.550 ,5,1,0.,12.0,0.,12.0,0.,12.0,0.,12.0
1979-03-01 12:19:16.550 ,5,1,0.,12.0,0.,12.0,0.,12.0,0.,12.0
1979-03-01 12:19:28.550 ,4,1,0.,12.0,0.,12.0,0.,12.0,0.,12.0
1979-03-01 12:19:40.550 ,4,1,0.,12.0,0.,12.0,0.,12.0,0.,12.0
1979-03-01 12:19:52.550 ,3,1,0.,12.0,0.,12.0,0.,12.0,0.,12.0
1979-03-01 12:20:04.550 ,3,1,0.,12.0,0.,12.0,0.,12.0,0.,12.0
1979-03-01 12:20:16.550 ,2,1,0.,12.0,0.,12.0,0.,12.0,1.,12.0
1979-03-01 12:20:28.550 ,2,1,0.,12.0,0.,12.0,0.,12.0,0.,12.0
1979-03-01 12:20:40.550 ,1,1,0.,12.0,0.,12.0,0.,12.0,0.,12.0
1979-03-01 12:20:52.550 ,1,1,0.,12.0,0.,12.0,0.,12.0,0.,12.0
1979-03-01 12:21:04.550 ,0,1,0.,12.0,0.,12.0,0.,12.0,0.,12.0
1979-03-01 12:21:16.550 ,0,1,0.,12.0,0.,12.0,0.,12.0,0.,12.0
1979-03-01 12:21:28.550 ,0,1,1.,12.0,0.,12.0,0.,12.0,0.,12.0
1979-03-01 12:21:40.550 ,0,1,1.,12.0,0.,12.0,0.,12.0,0.,12.0
1979-03-01 12:21:52.550 ,1,1,1.,12.0,0.,12.0,0.,12.0,0.,12.0
1979-03-01 12:22:04.550 ,1,1,0.,12.0,0.,12.0,0.,12.0,0.,12.0
1979-03-01 12:22:16.550 ,2,1,0.,12.0,0.,12.0,0.,12.0,0.,12.0
1979-03-01 12:22:28.550 ,2,1,0.,12.0,0.,12.0,0.,12.0,0.,12.0
1979-03-01 12:22:40.550 ,3,1,0.,12.0,0.,12.0,0.,12.0,0.,12.0
1979-03-01 12:22:52.550 ,3,1,0.,12.0,0.,12.0,0.,12.0,0.,12.0
1979-03-01 12:23:04.550 ,4,1,0.,12.0,0.,12.0,0.,12.0,0.,12.0
1979-03-01 12:23:16.550 ,4,1,0.,12.0,0.,12.0,0.,12.0,0.,12.0
1979-03-01 12:23:28.550 ,5,1,0.,12.0,0.,12.0,0.,12.0,0.,12.0
1979-03-01 12:23:40.550 ,5,1,0.,12.0,0.,12.0,0.,12.0,0.,12.0
1979-03-01 12:23:52.550 ,6,1,0.,12.0,0.,12.0,0.,12.0,0.,12.0
1979-03-01 12:24:04.550 ,6,1,0.,12.0,0.,12.0,0.,12.0,0.,12.0
1979-03-01 12:24:16.550 ,7,1,1.,12.0,0.,12.0,0.,12.0,0.,12.0
1979-03-01 12:24:28.550 ,7,1,0.,12.0,0.,12.0,0.,12.0,0.,12.0
1979-03-01 12:24:40.550 ,7,1,0.,12.0,0.,12.0,0.,12.0,0.,12.0
1979-03-01 12:24:52.550 ,7,1,0.,12.0,0.,12.0,0.,12.0,0.,12.0
1979-03-01 12:25:04.550 ,6,1,0.,12.0,0.,12.0,0.,12.0,0.,12.0
1979-03-01 12:25:16.550 ,6,1,0.,12.0,0.,12.0,0.,12.0,0.,12.0
1979-03-01 12:25:28.550 ,5,1,0.,12.0,0.,12.0,0.,12.0,0.,12.0
1979-03-01 12:25:40.550 ,5,1,0.,12.0,0.,12.0,0.,12.0,0.,12.0
1979-03-01 12:25:52.550 ,4,1,0.,12.0,0.,12.0,0.,12.0,0.,12.0
1979-03-01 12:26:04.550 ,4,1,0.,12.0,0.,12.0,0.,12.0,0.,12.0
1979-03-01 12:26:16.550 ,3,1,0.,12.0,0.,12.0,0.,12.0,0.,12.0
1979-03-01 12:26:28.550 ,3,1,0.,12.0,0.,12.0,0.,12.0,0.,12.0
1979-03-01 12:26:40.550 ,2,1,1.,12.0,0.,12.0,0.,12.0,0.,12.0
1979-03-01 12:26:52.550 ,2,1,1.,12.0,0.,12.0,0.,12.0,0.,12.0
1979-03-01 12:27:04.550 ,1,1,0.,12.0,0.,12.0,0.,12.0,0.,12.0
1979-03-01 12:27:16.550 ,1,1,0.,12.0,0.,12.0,0.,12.0,0.,12.0
1979-03-01 12:27:28.550 ,0,1,0.,12.0,0.,12.0,0.,12.0,0.,12.0
1979-03-01 12:27:40.550 ,0,1,0.,12.0,0.,12.0,0.,12.0,0.,12.0
1979-03-01 12:27:52.550 ,0,1,0.,12.0,0.,12.0,0.,12.0,0.,12.0
1979-03-01 12:28:04.550 ,0,1,0.,12.0,0.,12.0,0.,12.0,0.,12.0
1979-03-01 12:28:16.550 ,1,1,0.,12.0,0.,12.0,0.,12.0,0.,12.0
1979-03-01 12:28:28.550 ,1,1,0.,12.0,0.,12.0,0.,12.0,0.,12.0
1979-03-01 12:28:40.550 ,2,1,0.,12.0,0.,12.0,0.,12.0,0.,12.0
1979-03-01 12:28:52.550 ,2,1,0.,12.0,0.,12.0,0.,12.0,0.,12.0
1979-03-01 12:29:04.550 ,3,1,0.,12.0,0.,12.0,0.,12.0,0.,12.0
1979-03-01 12:29:16.550 ,3,1,0.,12.0,0.,12.0,0.,12.0,0.,12.0
1979-03-01 12:29:28.550 ,4,1,0.,12.0,0.,12.0,0.,12.0,0.,12.0
1979-03-01 12:29:40.550 ,4,1,0.,12.0,0.,12.0,0.,12.0,0.,12.0
1979-03-01 12:29:52.550 ,5,1,0.,12.0,0.,12.0,0.,12.0,0.,12.0
1979-03-01 12:30:04.550 ,5,1,0.,12.0,0.,12.0,0.,12.0,0.,12.0
1979-03-01 12:30:16.550 ,6,1,0.,12.0,0.,12.0,0.,12.0,0.,12.0
1979-03-01 12:30:28.550 ,6,1,0.,12.0,0.,12.0,0.,12.0,0.,12.0
1979-03-01 12:30:40.550 ,7,1,0.,12.0,0.,12.0,0.,12.0,0.,12.0
1979-03-01 12:30:52.550 ,7,1,0.,12.0,0.,12.0,0.,12.0,0.,12.0
1979-03-01 12:31:04.550 ,7,1,0.,12.0,0.,12.0,0.,12.0,0.,12.0
1979-03-01 12:31:16.550 ,7,1,0.,12.0,0.,12.0,0.,12.0,0.,12.0
1979-03-01 12:31:28.550 ,6,1,0.,12.0,0.,12.0,0.,12.0,0.,12.0
1979-03-01 12:31:40.550 ,6,1,0.,12.0,0.,12.0,0.,12.0,0.,12.0
1979-03-01 12:31:52.550 ,5,1,0.,12.0,0.,12.0,0.,12.0,0.,12.0
1979-03-01 12:32:04.550 ,5,1,0.,12.0,0.,12.0,0.,12.0,0.,12.0
1979-03-01 12:32:16.550 ,4,1,0.,12.0,0.,12.0,0.,12.0,0.,12.0
1979-03-01 12:32:28.550 ,4,1,0.,12.0,0.,12.0,0.,12.0,0.,12.0
1979-03-01 12:32:40.550 ,3,1,0.,12.0,0.,12.0,0.,12.0,0.,12.0
1979-03-01 12:32:52.550 ,3,1,0.,12.0,0.,12.0,0.,12.0,0.,12.0
1979-03-01 12:33:04.550 ,2,1,0.,12.0,0.,12.0,0.,12.0,0.,12.0
1979-03-01 12:33:16.550 ,2,1,0.,12.0,0.,12.0,0.,12.0,0.,12.0
1979-03-01 12:33:28.550 ,1,1,0.,12.0,0.,12.0,0.,12.0,0.,12.0
1979-03-01 12:33:40.550 ,1,1,0.,12.0,0.,12.0,0.,12.0,0.,12.0
1979-03-01 12:33:52.550 ,0,1,0.,12.0,0.,12.0,0.,12.0,0.,12.0
1979-03-01 12:34:04.550 ,0,1,0.,12.0,0.,12.0,0.,12.0,0.,12.0
1979-03-01 12:34:16.560 ,0,1,0.,12.0,0.,12.0,0.,12.0,0.,12.0
1979-03-01 12:34:28.560 ,0,1,0.,12.0,0.,12.0,0.,12.0,0.,12.0
1979-03-01 12:34:40.560 ,1,1,0.,12.0,0.,12.0,0.,12.0,0.,12.0
1979-03-01 12:34:52.560 ,1,1,0.,12.0,0.,12.0,0.,12.0,0.,12.0
1979-03-01 12:35:04.560 ,2,1,,0,,0,,0,,0
1979-03-01 12:35:16.560 ,2,1,0.,12.0,0.,12.0,0.,12.0,0.,12.0
1979-03-01 12:35:28.560 ,3,1,0.,12.0,0.,12.0,0.,12.0,0.,12.0
1979-03-01 12:35:40.560 ,3,1,0.,12.0,0.,12.0,0.,12.0,0.,12.0
1979-03-01 12:35:52.560 ,4,1,0.,12.0,0.,12.0,0.,12.0,0.,12.0
1979-03-01 12:36:04.560 ,4,1,0.,12.0,0.,12.0,0.,12.0,0.,12.0
1979-03-01 12:36:16.560 ,5,1,0.,12.0,0.,12.0,0.,12.0,0.,12.0
1979-03-01 12:36:28.560 ,5,1,0.,12.0,0.,12.0,0.,12.0,0.,12.0
1979-03-01 12:36:40.560 ,6,1,0.,12.0,0.,12.0,0.,12.0,0.,12.0
1979-03-01 12:36:52.560 ,6,1,0.,12.0,0.,12.0,0.,12.0,0.,12.0
1979-03-01 12:37:04.560 ,7,1,0.,12.0,0.,12.0,0.,12.0,0.,12.0
1979-03-01 12:37:16.560 ,7,1,0.,12.0,0.,12.0,0.,12.0,0.,12.0
1979-03-01 12:37:28.560 ,7,1,0.,12.0,0.,12.0,0.,12.0,0.,12.0
1979-03-01 12:37:40.560 ,7,1,0.,12.0,0.,12.0,0.,12.0,0.,12.0
1979-03-01 12:37:52.560 ,6,1,0.,12.0,0.,12.0,0.,12.0,0.,12.0
1979-03-01 12:38:04.560 ,6,1,0.,12.0,0.,12.0,0.,12.0,0.,12.0
1979-03-01 12:38:16.560 ,5,1,0.,12.0,0.,12.0,0.,12.0,0.,12.0
1979-03-01 12:38:28.560 ,5,1,0.,12.0,0.,12.0,0.,12.0,0.,12.0
1979-03-01 12:38:40.560 ,4,1,0.,12.0,0.,12.0,0.,12.0,0.,12.0
1979-03-01 12:38:52.560 ,4,1,0.,12.0,0.,12.0,0.,12.0,0.,12.0
1979-03-01 12:39:04.560 ,3,1,0.,12.0,0.,12.0,0.,12.0,0.,12.0
1979-03-01 12:39:16.560 ,3,1,0.,12.0,0.,12.0,0.,12.0,0.,12.0
1979-03-01 12:39:28.560 ,2,1,0.,12.0,0.,12.0,0.,12.0,0.,12.0
1979-03-01 12:39:40.560 ,2,1,0.,12.0,0.,12.0,0.,12.0,0.,12.0
1979-03-01 12:39:52.560 ,1,1,0.,12.0,0.,12.0,0.,12.0,0.,12.0
1979-03-01 12:40:04.560 ,1,1,0.,12.0,0.,12.0,0.,12.0,0.,12.0
1979-03-01 12:40:16.560 ,0,1,0.,12.0,0.,12.0,0.,12.0,0.,12.0
1979-03-01 12:40:28.560 ,0,1,0.,12.0,0.,12.0,0.,12.0,0.,12.0
1979-03-01 12:40:40.560 ,0,1,0.,12.0,0.,12.0,0.,12.0,0.,12.0
1979-03-01 12:40:52.560 ,0,1,1.,12.0,0.,12.0,0.,12.0,0.,12.0
1979-03-01 12:41:04.560 ,1,1,0.,12.0,0.,12.0,0.,12.0,0.,12.0
1979-03-01 12:41:16.560 ,1,1,0.,12.0,0.,12.0,0.,12.0,0.,12.0
1979-03-01 12:41:28.560 ,2,1,0.,12.0,0.,12.0,0.,12.0,0.,12.0
1979-03-01 12:41:40.560 ,2,1,1.,12.0,0.,12.0,0.,12.0,0.,12.0
1979-03-01 12:41:52.560 ,3,1,0.,12.0,0.,12.0,0.,12.0,0.,12.0
1979-03-01 12:42:04.560 ,3,1,0.,12.0,0.,12.0,0.,12.0,0.,12.0
1979-03-01 12:42:16.560 ,4,1,0.,12.0,0.,12.0,0.,12.0,1.,12.0
1979-03-01 12:42:28.560 ,4,1,0.,12.0,0.,12.0,0.,12.0,0.,12.0
1979-03-01 12:42:40.560 ,5,1,0.,12.0,0.,12.0,0.,12.0,0.,12.0
1979-03-01 12:42:52.560 ,5,1,0.,12.0,0.,12.0,0.,12.0,0.,12.0
1979-03-01 12:43:04.560 ,6,1,0.,12.0,0.,12.0,0.,12.0,0.,12.0
1979-03-01 12:43:16.560 ,6,1,0.,12.0,0.,12.0,0.,12.0,0.,12.0
1979-03-01 12:43:28.560 ,7,1,0.,12.0,0.,12.0,0.,12.0,0.,12.0
1979-03-01 12:43:40.560 ,7,1,0.,12.0,0.,12.0,0.,12.0,0.,12.0
1979-03-01 12:43:52.560 ,7,1,0.,12.0,0.,12.0,0.,12.0,0.,12.0
1979-03-01 12:44:04.560 ,7,1,0.,12.0,0.,12.0,0.,12.0,0.,12.0
1979-03-01 12:44:16.560 ,6,1,0.,12.0,0.,12.0,0.,12.0,0.,12.0
1979-03-01 12:44:28.560 ,6,1,0.,12.0,0.,12.0,0.,12.0,0.,12.0
1979-03-01 12:44:40.560 ,5,1,0.,12.0,0.,12.0,0.,12.0,0.,12.0
1979-03-01 12:44:52.560 ,5,1,0.,12.0,0.,12.0,0.,12.0,0.,12.0
1979-03-01 12:45:04.560 ,4,1,0.,12.0,0.,12.0,0.,12.0,0.,12.0
1979-03-01 12:45:16.560 ,4,1,0.,12.0,0.,12.0,0.,12.0,0.,12.0
1979-03-01 12:45:28.560 ,3,1,0.,12.0,0.,12.0,0.,12.0,0.,12.0
1979-03-01 12:45:40.560 ,3,1,0.,12.0,0.,12.0,0.,12.0,0.,12.0
1979-03-01 12:45:52.560 ,2,1,0.,12.0,0.,12.0,0.,12.0,0.,12.0
1979-03-01 12:46:04.560 ,2,1,0.,12.0,0.,12.0,0.,12.0,0.,12.0
1979-03-01 12:46:16.560 ,1,1,0.,12.0,0.,12.0,0.,12.0,0.,12.0
1979-03-01 12:46:28.560 ,1,1,0.,12.0,0.,12.0,0.,12.0,0.,12.0
1979-03-01 12:46:40.560 ,0,1,0.,12.0,0.,12.0,0.,12.0,0.,12.0
1979-03-01 12:46:52.560 ,0,1,0.,12.0,0.,12.0,0.,12.0,0.,12.0
1979-03-01 12:47:04.560 ,0,1,0.,12.0,0.,12.0,0.,12.0,0.,12.0
1979-03-01 12:47:16.560 ,0,1,0.,12.0,0.,12.0,0.,12.0,0.,12.0
1979-03-01 12:47:28.560 ,1,1,0.,12.0,0.,12.0,0.,12.0,0.,12.0
1979-03-01 12:47:40.560 ,1,1,0.,12.0,0.,12.0,0.,12.0,0.,12.0
1979-03-01 12:47:52.560 ,2,1,0.,12.0,0.,12.0,0.,12.0,0.,12.0
1979-03-01 12:48:04.560 ,2,1,0.,12.0,0.,12.0,0.,12.0,0.,12.0
1979-03-01 12:48:16.560 ,3,1,0.,12.0,0.,12.0,0.,12.0,0.,12.0
1979-03-01 12:48:28.560 ,3,1,0.,12.0,0.,12.0,0.,12.0,0.,12.0
1979-03-01 12:48:40.560 ,4,1,1.,12.0,0.,12.0,0.,12.0,0.,12.0
1979-03-01 12:48:52.560 ,4,1,0.,12.0,0.,12.0,0.,12.0,0.,12.0
1979-03-01 12:49:04.560 ,5,1,0.,12.0,0.,12.0,0.,12.0,0.,12.0
1979-03-01 12:49:16.560 ,5,1,0.,12.0,0.,12.0,0.,12.0,0.,12.0
1979-03-01 12:49:28.560 ,6,1,0.,12.0,0.,12.0,0.,12.0,0.,12.0
1979-03-01 12:49:40.560 ,6,1,0.,12.0,0.,12.0,0.,12.0,0.,12.0
1979-03-01 12:49:52.560 ,7,1,0.,12.0,0.,12.0,0.,12.0,0.,12.0
1979-03-01 12:50:04.560 ,7,1,0.,12.0,0.,12.0,0.,12.0,0.,12.0
1979-03-01 12:50:16.560 ,7,1,0.,12.0,0.,12.0,0.,12.0,0.,12.0
1979-03-01 12:50:28.560 ,7,1,0.,12.0,0.,12.0,0.,12.0,0.,12.0
1979-03-01 12:50:40.560 ,6,1,0.,12.0,0.,12.0,0.,12.0,0.,12.0
1979-03-01 12:50:52.560 ,6,1,0.,12.0,0.,12.0,0.,12.0,0.,12.0
1979-03-01 12:51:04.560 ,5,1,0.,12.0,0.,12.0,0.,12.0,0.,12.0
1979-03-01 12:51:16.560 ,5,1,0.,12.0,0.,12.0,0.,12.0,0.,12.0
1979-03-01 12:51:28.560 ,4,1,0.,12.0,0.,12.0,0.,12.0,0.,12.0
1979-03-01 12:51:40.560 ,4,1,0.,12.0,0.,12.0,0.,12.0,0.,12.0
1979-03-01 12:51:52.560 ,3,1,0.,12.0,0.,12.0,0.,12.0,0.,12.0
1979-03-01 12:52:04.560 ,3,1,0.,12.0,0.,12.0,0.,12.0,0.,12.0
1979-03-01 12:52:16.560 ,2,1,1.,12.0,0.,12.0,0.,12.0,0.,12.0
1979-03-01 12:52:28.560 ,2,1,0.,12.0,0.,12.0,0.,12.0,0.,12.0
1979-03-01 12:52:40.560 ,1,1,0.,12.0,0.,12.0,0.,12.0,0.,12.0
1979-03-01 12:52:52.560 ,1,1,0.,12.0,0.,12.0,0.,12.0,0.,12.0
1979-03-01 12:53:04.560 ,0,1,0.,12.0,0.,12.0,0.,12.0,0.,12.0
1979-03-01 12:53:16.560 ,0,1,1.,12.0,0.,12.0,0.,12.0,0.,12.0
1979-03-01 12:53:28.560 ,0,1,0.,12.0,0.,12.0,0.,12.0,0.,12.0
1979-03-01 12:53:40.560 ,0,1,0.,12.0,0.,12.0,0.,12.0,0.,12.0
1979-03-01 12:53:52.560 ,1,1,0.,12.0,0.,12.0,0.,12.0,0.,12.0
1979-03-01 12:54:04.560 ,1,1,0.,12.0,0.,12.0,0.,12.0,0.,12.0
1979-03-01 12:54:16.560 ,2,1,0.,12.0,0.,12.0,0.,12.0,0.,12.0
1979-03-01 12:54:28.560 ,2,1,0.,12.0,0.,12.0,0.,12.0,0.,12.0
1979-03-01 12:54:40.560 ,3,1,1.,12.0,0.,12.0,0.,12.0,0.,12.0
1979-03-01 12:54:52.560 ,3,1,0.,12.0,0.,12.0,0.,12.0,0.,12.0
1979-03-01 12:55:04.560 ,4,1,0.,12.0,0.,12.0,0.,12.0,0.,12.0
1979-03-01 12:55:16.560 ,4,1,0.,12.0,0.,12.0,0.,12.0,0.,12.0
1979-03-01 12:55:28.560 ,5,1,0.,12.0,0.,12.0,0.,12.0,0.,12.0
1979-03-01 12:55:40.560 ,5,1,0.,12.0,0.,12.0,0.,12.0,0.,12.0
1979-03-01 12:55:52.560 ,6,1,0.,12.0,0.,12.0,0.,12.0,0.,12.0
1979-03-01 12:56:04.560 ,6,1,0.,12.0,0.,12.0,0.,12.0,0.,12.0
1979-03-01 12:56:16.560 ,7,1,0.,12.0,0.,12.0,0.,12.0,0.,12.0
1979-03-01 12:56:28.560 ,7,1,0.,12.0,0.,12.0,0.,12.0,0.,12.0
1979-03-01 12:56:40.560 ,7,1,0.,12.0,0.,12.0,0.,12.0,0.,12.0
1979-03-01 12:56:52.560 ,7,1,0.,12.0,0.,12.0,0.,12.0,0.,12.0
1979-03-01 12:57:04.560 ,6,1,0.,12.0,0.,12.0,0.,12.0,0.,12.0
1979-03-01 12:57:16.560 ,6,1,0.,12.0,0.,12.0,0.,12.0,0.,12.0
1979-03-01 12:57:28.560 ,5,1,0.,12.0,0.,12.0,0.,12.0,0.,12.0
1979-03-01 12:57:40.560 ,5,1,0.,12.0,0.,12.0,0.,12.0,0.,12.0
1979-03-01 12:57:52.560 ,4,1,0.,12.0,0.,12.0,0.,12.0,0.,12.0
1979-03-01 12:58:04.560 ,4,1,0.,12.0,0.,12.0,0.,12.0,0.,12.0
1979-03-01 12:58:16.560 ,3,1,0.,12.0,0.,12.0,0.,12.0,0.,12.0
1979-03-01 12:58:28.560 ,3,1,0.,12.0,0.,12.0,0.,12.0,0.,12.0
1979-03-01 12:58:40.560 ,2,1,0.,12.0,0.,12.0,0.,12.0,0.,12.0
1979-03-01 12:58:52.560 ,2,1,1.,12.0,0.,12.0,0.,12.0,0.,12.0
1979-03-01 12:59:04.560 ,1,1,0.,12.0,0.,12.0,0.,12.0,0.,12.0
1979-03-01 12:59:16.560 ,1,1,0.,12.0,0.,12.0,0.,12.0,0.,12.0
1979-03-01 12:59:28.560 ,0,1,0.,12.0,0.,12.0,0.,12.0,0.,12.0
1979-03-01 12:59:40.560 ,0,1,0.,12.0,0.,12.0,0.,12.0,0.,12.0
1979-03-01 12:59:52.560 ,0,1,0.,12.0,0.,12.0,0.,12.0,0.,12.0
1979-03-01 13:00:04.560 ,0,1,0.,12.0,0.,12.0,0.,12.0,0.,12.0
1979-03-01 13:00:16.560 ,1,1,0.,12.0,0.,12.0,0.,12.0,0.,12.0
1979-03-01 13:00:28.560 ,1,1,0.,12.0,0.,12.0,0.,12.0,0.,12.0
1979-03-01 13:00:40.560 ,2,1,0.,12.0,0.,12.0,0.,12.0,0.,12.0
1979-03-01 13:00:52.560 ,2,1,0.,12.0,0.,12.0,0.,12.0,0.,12.0
1979-03-01 13:01:04.560 ,3,1,0.,12.0,0.,12.0,0.,12.0,0.,12.0
1979-03-01 13:01:16.560 ,3,1,0.,12.0,0.,12.0,0.,12.0,0.,12.0
1979-03-01 13:01:28.560 ,4,1,0.,12.0,0.,12.0,0.,12.0,0.,12.0
1979-03-01 13:01:40.560 ,4,1,0.,12.0,0.,12.0,0.,12.0,0.,12.0
1979-03-01 13:01:52.560 ,5,1,0.,12.0,0.,12.0,0.,12.0,0.,12.0
1979-03-01 13:02:04.560 ,5,1,0.,12.0,0.,12.0,0.,12.0,0.,12.0
1979-03-01 13:02:16.560 ,6,1,0.,12.0,0.,12.0,0.,12.0,0.,12.0
1979-03-01 13:02:28.560 ,6,1,0.,12.0,0.,12.0,0.,12.0,0.,12.0
1979-03-01 13:02:40.560 ,7,1,0.,12.0,0.,12.0,0.,12.0,0.,12.0
1979-03-01 13:02:52.560 ,7,1,0.,12.0,0.,12.0,0.,12.0,0.,12.0
1979-03-01 13:03:04.560 ,7,1,0.,12.0,0.,12.0,0.,12.0,0.,12.0
1979-03-01 13:03:16.560 ,7,1,0.,12.0,0.,12.0,0.,12.0,0.,12.0
1979-03-01 13:03:28.560 ,6,1,0.,12.0,0.,12.0,0.,12.0,0.,12.0
1979-03-01 13:03:40.560 ,6,1,0.,12.0,0.,12.0,0.,12.0,0.,12.0
1979-03-01 13:03:52.560 ,5,1,0.,12.0,0.,12.0,0.,12.0,0.,12.0
1979-03-01 13:04:04.560 ,5,1,0.,12.0,0.,12.0,0.,12.0,0.,12.0
1979-03-01 13:04:16.560 ,4,1,0.,12.0,0.,12.0,0.,12.0,0.,12.0
1979-03-01 13:04:28.560 ,4,1,0.,12.0,0.,12.0,0.,12.0,0.,12.0
1979-03-01 13:04:40.560 ,3,1,0.,12.0,0.,12.0,0.,12.0,0.,12.0
1979-03-01 13:04:52.560 ,3,1,1.,12.0,0.,12.0,0.,12.0,0.,12.0
1979-03-01 13:05:04.560 ,2,1,0.,12.0,0.,12.0,0.,12.0,0.,12.0
1979-03-01 13:05:16.560 ,2,1,0.,12.0,0.,12.0,0.,12.0,0.,12.0
1979-03-01 13:05:28.560 ,1,1,0.,12.0,0.,12.0,0.,12.0,0.,12.0
1979-03-01 13:05:40.560 ,1,1,0.,12.0,0.,12.0,0.,12.0,0.,12.0
1979-03-01 13:05:52.560 ,0,1,0.,12.0,0.,12.0,0.,12.0,0.,12.0
1979-03-01 13:06:04.560 ,0,1,0.,12.0,0.,12.0,0.,12.0,0.,12.0
1979-03-01 13:06:16.560 ,0,1,0.,12.0,0.,12.0,0.,12.0,0.,12.0
1979-03-01 13:06:28.560 ,0,1,0.,12.0,0.,12.0,0.,12.0,0.,12.0
1979-03-01 13:06:40.560 ,1,1,0.,12.0,0.,12.0,0.,12.0,0.,12.0
1979-03-01 13:06:52.560 ,1,1,0.,12.0,0.,12.0,0.,12.0,0.,12.0
1979-03-01 13:07:04.560 ,2,1,0.,12.0,0.,12.0,0.,12.0,0.,12.0
1979-03-01 13:07:16.560 ,2,1,0.,12.0,0.,12.0,0.,12.0,0.,12.0
1979-03-01 13:07:28.560 ,3,1,0.,12.0,0.,12.0,0.,12.0,0.,12.0
1979-03-01 13:07:40.560 ,3,1,0.,12.0,0.,12.0,0.,12.0,0.,12.0
1979-03-01 13:07:52.560 ,4,1,1.,12.0,0.,12.0,0.,12.0,0.,12.0
1979-03-01 13:08:04.560 ,4,1,0.,12.0,0.,12.0,0.,12.0,0.,12.0
1979-03-01 13:08:16.560 ,5,1,0.,12.0,0.,12.0,0.,12.0,0.,12.0
1979-03-01 13:08:28.560 ,5,1,0.,12.0,0.,12.0,0.,12.0,0.,12.0
1979-03-01 13:08:40.560 ,6,1,0.,12.0,0.,12.0,0.,12.0,0.,12.0
1979-03-01 13:08:52.560 ,6,1,0.,12.0,0.,12.0,0.,12.0,0.,12.0
1979-03-01 13:09:04.560 ,7,1,0.,12.0,0.,12.0,0.,12.0,0.,12.0
1979-03-01 13:09:16.560 ,7,1,0.,12.0,0.,12.0,0.,12.0,0.,12.0
1979-03-01 13:09:28.560 ,7,1,0.,12.0,0.,12.0,0.,12.0,0.,12.0
1979-03-01 13:09:40.560 ,7,1,0.,12.0,0.,12.0,0.,12.0,0.,12.0
1979-03-01 13:09:52.560 ,6,1,0.,12.0,0.,12.0,0.,12.0,0.,12.0
1979-03-01 13:10:04.560 ,6,1,0.,12.0,0.,12.0,0.,12.0,0.,12.0
1979-03-01 13:10:16.560 ,5,1,0.,12.0,0.,12.0,0.,12.0,0.,12.0
1979-03-01 13:10:28.560 ,5,1,0.,12.0,0.,12.0,0.,12.0,0.,12.0
1979-03-01 13:10:40.560 ,4,1,0.,12.0,0.,12.0,0.,12.0,0.,12.0
1979-03-01 13:10:52.560 ,4,1,0.,12.0,0.,12.0,0.,12.0,0.,12.0
1979-03-01 13:11:04.560 ,3,1,0.,12.0,0.,12.0,0.,12.0,0.,12.0
1979-03-01 13:11:16.560 ,3,1,0.,12.0,0.,12.0,0.,12.0,0.,12.0
1979-03-01 13:11:28.560 ,2,1,0.,12.0,0.,12.0,0.,12.0,0.,12.0
1979-03-01 13:11:40.560 ,2,1,0.,12.0,0.,12.0,0.,12.0,0.,12.0
1979-03-01 13:11:52.560 ,1,1,0.,12.0,0.,12.0,0.,12.0,0.,12.0
1979-03-01 13:12:04.560 ,1,1,0.,12.0,0.,12.0,0.,12.0,0.,12.0
1979-03-01 13:12:16.560 ,0,1,0.,12.0,0.,12.0,0.,12.0,0.,12.0
1979-03-01 13:12:28.560 ,0,1,0.,12.0,0.,12.0,0.,12.0,0.,12.0
1979-03-01 13:12:40.560 ,0,1,0.,12.0,0.,12.0,0.,12.0,0.,12.0
1979-03-01 13:12:52.560 ,0,1,0.,12.0,0.,12.0,0.,12.0,0.,12.0
1979-03-01 13:13:04.560 ,1,1,0.,12.0,0.,12.0,0.,12.0,0.,12.0
1979-03-01 13:13:16.560 ,1,1,0.,12.0,0.,12.0,0.,12.0,0.,12.0
1979-03-01 13:13:28.560 ,2,1,0.,12.0,0.,12.0,0.,12.0,0.,12.0
1979-03-01 13:13:40.560 ,2,1,0.,12.0,0.,12.0,0.,12.0,0.,12.0
1979-03-01 13:13:52.560 ,3,1,0.,12.0,0.,12.0,0.,12.0,0.,12.0
1979-03-01 13:14:04.560 ,3,1,0.,12.0,0.,12.0,0.,12.0,0.,12.0
1979-03-01 13:14:16.560 ,4,1,0.,12.0,0.,12.0,0.,12.0,0.,12.0
1979-03-01 13:14:28.560 ,4,1,0.,12.0,0.,12.0,0.,12.0,0.,12.0
1979-03-01 13:14:40.560 ,5,1,0.,12.0,0.,12.0,0.,12.0,0.,12.0
1979-03-01 13:14:52.560 ,5,1,0.,12.0,0.,12.0,0.,12.0,0.,12.0
1979-03-01 13:15:04.560 ,6,1,0.,12.0,0.,12.0,0.,12.0,0.,12.0
1979-03-01 13:15:16.560 ,6,1,0.,12.0,0.,12.0,0.,12.0,0.,12.0
1979-03-01 13:15:28.560 ,7,1,0.,12.0,0.,12.0,0.,12.0,0.,12.0
1979-03-01 13:15:40.560 ,7,1,0.,12.0,0.,12.0,0.,12.0,0.,12.0
1979-03-01 13:15:52.560 ,7,1,0.,12.0,0.,12.0,0.,12.0,0.,12.0
1979-03-01 13:16:04.560 ,7,1,0.,12.0,0.,12.0,0.,12.0,0.,12.0
1979-03-01 13:16:16.560 ,6,1,0.,12.0,0.,12.0,0.,12.0,0.,12.0
1979-03-01 13:16:28.560 ,6,1,0.,12.0,0.,12.0,0.,12.0,0.,12.0
1979-03-01 13:16:40.560 ,5,1,0.,12.0,0.,12.0,0.,12.0,0.,12.0
1979-03-01 13:16:52.560 ,5,1,0.,12.0,0.,12.0,0.,12.0,0.,12.0
1979-03-01 13:17:04.560 ,4,1,0.,12.0,0.,12.0,0.,12.0,0.,12.0
1979-03-01 13:17:16.560 ,4,1,0.,12.0,0.,12.0,0.,12.0,0.,12.0
1979-03-01 13:17:28.560 ,3,1,0.,12.0,0.,12.0,0.,12.0,0.,12.0
1979-03-01 13:17:40.560 ,3,1,0.,12.0,0.,12.0,0.,12.0,0.,12.0
1979-03-01 13:17:52.560 ,2,1,0.,12.0,0.,12.0,0.,12.0,0.,12.0
1979-03-01 13:18:04.560 ,2,1,0.,12.0,0.,12.0,0.,12.0,0.,12.0